Tracking 34408 objects as of 14-Jun-2026
HD Live streaming from Space Station
objects crossing your sky now

THORAD AGENA D DEB

Track THORAD AGENA D DEB now!
10-day predictions


NORAD ID: 19422
Int'l Code: 1970-025QA
Perigee: 1,011.5 km
Apogee: 1,025.2 km
Inclination: 100.1 °
Period: 105.4 minutes
Semi major axis: 7389 km
RCS: 0.0088 m2 (small)
Launch date: April 8, 1970
Source: United States (US)
Launch site: AIR FORCE WESTERN TEST RANGE (AFWTR)

Note: This is SATELLITE DEBRIS
Your satellite tracking list
Your tracking list is empty




NASA's NSSDC Master Catalog

Two Line Element Set (TLE):
1 19422U 70025QA  26161.97828734  .00000310  00000-0  43071-3 0  9998
2 19422 100.0813 228.5841 0009274 307.7553 231.6471 13.66754970 45770
Source of the keplerian elements: AFSPC